Regional Weather Roundup
Issued by NWS Sterling, VA

Home | Current Version | Previous Version | Graphics & Text | Print | Product List | Glossary On
Versions: 1 2 3 4 5 6 7 8 9 10 11 12 13 14 15 16 17 18 19 20 21 22 23 24 25 26 27 28 29 30 31 32 33 34 35 36 37 38 39 40 41 42 43 44 45 46 47 48 49 50
000
ASUS41 KLWX 252210
RWRLWX

REGIONAL WEATHER ROUNDUP
NATIONAL WEATHER SERVICE BALTIMORE MD/WASHINGTON DC
500 PM EST SUN JAN 25 2015

Note: "FAIR" indicates few or no clouds below 12,000 feet
with no significant weather and/or obstructions to visibility.
 TC=TEMPERATURE CELSIUS

 * =Non NWS site. Station does not report precipitation (e.g. rain,
    snow, etc.), thunder, or fog.

DCZ001-MDZ009-015-VAZ040>042-051-053>054-252300-
WASHINGTON METRO

CITY           SKY/WX    TMP DP  RH WIND       PRES   REMARKS
WASHINGTON NAT CLOUDY    49  31  49 S5        29.83F
DULLES         CLOUDY    45  31  58 S5        29.82S
ANDREWS AFB    CLOUDY    47  32  55 S6        29.82S
FT BELVOIR     CLOUDY    49  31  51 SE3       29.83F
QUANTICO       CLOUDY    44  33  65 S5        29.84S
COLLEGE PARK*  MOCLDY    46  32  57 CALM      29.82F
LEESBURG*      CLOUDY    45  34  65 S3        29.82F
MANASSAS*      CLOUDY    46  34  61 CALM      29.82F
GAITHERSBURG*  CLOUDY    45  28  53 CALM      29.85S

$$

MDZ006>007-011-014-252300-
BALTIMORE METRO

CITY           SKY/WX    TMP DP  RH WIND       PRES   REMARKS
BWI AIRPORT    CLOUDY    47  30  51 CALM      29.82R
MD SCIENCE CTR   N/A     48  30  49 MISG      29.83R
MARTIN STATE   PTCLDY    48  34  57 CALM      29.85R
ANNAPOLIS      CLOUDY    45  32  60 S7        29.83S
FORT MEADE*    CLOUDY    45  32  61 S5        29.84S

$$

MDZ012-015-019>023-252300-
MARYLAND EASTERN SHORE

CITY           SKY/WX    TMP DP  RH WIND       PRES   REMARKS
OCEAN CITY     MOCLDY    46  33  60 VRB6      29.87R
SALISBURY      MOCLDY    48  31  51 SW7       29.86R
BAY BRIDGE AP*   N/A     45  32  61 S3        29.84S
CAMBRIDGE*     CLOUDY    48  32  53 S8        29.84F
EASTON*        CLOUDY    48  36  61 SW6       29.88R

$$

MDZ017>025-252300-
SOUTHERN MARYLAND

CITY           SKY/WX    TMP DP  RH WIND       PRES   REMARKS
PATUXENT RIVER CLOUDY    43  33  68 S8        29.85S
ST INIGOES     MOCLDY    47  31  53 SE6       29.85R
LEONARDTOWN*   MOCLDY    46  30  53 S3        29.86R

$$

MDZ003>005-252300-
NORTH CENTRAL MARYLAND

CITY           SKY/WX    TMP DP  RH WIND       PRES   REMARKS
FREDERICK*     CLOUDY    45  32  61 SW7       29.84R
HAGERSTOWN APT CLOUDY    40  31  70 E6        29.80R
WESTMINSTER*   CLOUDY    43  34  70 CALM      29.80S

$$

MDZ501>502-252300-
WESTERN MARYLAND

CITY           SKY/WX    TMP DP  RH WIND       PRES   REMARKS
OAKLAND*       FOG       32 N/A N/A CALM      29.71S VSB 1
CUMBERLAND*    CLOUDY    43  34  70 NE3       29.82S

$$

VAZ025>031-252300-
SHENANDOAH VALLEY

CITY           SKY/WX    TMP DP  RH WIND       PRES   REMARKS
WINCHESTER*    CLOUDY    43  30  61 CALM      29.80R
FRONT ROYAL*   MOCLDY    43  32  65 CALM      29.79R
LURAY*         CLOUDY    45  36  70 CALM      29.78S
NEW MARKET*    MOCLDY    43  34  70 S3        29.77S
STAUNTON*      CLOUDY    46  32  59 CALM      29.79S
WAYNESBORO*    FAIR      45  32  60 SE3       29.77S

$$

WVZ021-048>050-054>055-252300-
EASTERN WEST VIRGINIA PANHANDLE

CITY           SKY/WX    TMP DP  RH WIND       PRES   REMARKS
MARTINSBURG    CLOUDY    44  33  65 CALM      29.80R
PETERSBURG*    NOT AVBL

$$

VAZ036>039-050-252300-
CENTRAL FOOTHILLS

CITY           SKY/WX    TMP DP  RH WIND       PRES   REMARKS
CHARLOTTESVILL PTCLDY    47  33  58 CALM      29.79F
CULPEPER*        N/A     46  34  61 CALM      29.82R
ORANGE*        PTCLDY    46  34  61 CALM      29.82R
GORDONSVILLE*  FAIR      47  33  57 MISG      29.79S
WARRENTON*     MOCLDY    47  37  68 S3        29.82R

$$

VAZ055>057-252300-
NORTH AND CENTRAL PIEDMONT

CITY           SKY/WX    TMP DP  RH WIND       PRES   REMARKS
FREDERICKSBRG* CLOUDY    51  34  52 SE5       29.82S
STAFFORD*      CLOUDY    49  31  49 CALM      29.86S

$$

NCZ024-NYZ072-PAZ021-071-VAZ022-071-252300-
OTHER REGIONAL OBSERVATIONS

CITY           SKY/WX    TMP DP  RH WIND       PRES   REMARKS
NEW YORK CITY  MOCLDY    38  10  31 CALM      29.86R
PHILADELPHIA   CLOUDY    44  31  60 W9        29.85R
PITTSBURGH     LGT SNOW  33  31  92 NE8       29.77R FOG     WCI  26
ROANOKE        MOCLDY    50  30  46 E9        29.77F
RICHMOND       MOCLDY    50  34  54 S5        29.82F
RALEIGH        PTCLDY    53  32  44 SE8       29.82F

$$

ANZ530>537-252300-
MARINE OBSERVATIONS

STATION/POSITION TIME  TEMP    WIND        PRES
                       AIR SEA DIR/SP/G
                 (UTC) (F)     (DEG/KT/KT) (MB)
THOMAS PT LIGHT  2200   42 38  170/ 11/ 12 1011.4S
BALT KEY BRIDGE  2200   47      CALM  /  1 1009.9S
COVE POINT       2200   40     190/ 12/ 14 1010.4F
LEWISETTA        2200   47 39  150/  9/ 10 1010.4R
SOLOMONS ISLAND  2200      39                N/A
PINEY POINT      2200          150/  9/ 10   N/A

$$




USA.gov is the U.S. government's official web portal to all federal, state and local government web resources and services.